Location: B�rgermoos
(47.6500°N, 9.0667°E)
Time: 17:20:30
(UTC+00:00)

Vanguard 1 - Pass Details

Date: 02 August 2021
Orbit: 652 x 3831 km, 34.3° (Epoch: 17 September)

Event Time Altitude Azimuth Distance (km) Brightness Sun altitude
Rises 11:12:30 0° 240° (WSW) 3,154 12.8 59.8°
Reaches altitude 10° 11:14:54 10° 226° (SW) 2,407 12.5 59.8°
Maximum altitude 11:19:29 26° 170° (S) 1,919 12.7 59.9°
Drops below altitude 10° 11:26:11 10° 117° (ESE) 3,630 13.3 60.0°
Sets 11:30:48 0° 107° (ESE) 5,178 13.9 60.0°
